Time,TemperatureF,DewpointF,PressureIn,WindDirection,WindDirectionDegrees,WindSpeedMPH,WindSpeedGustMPH,Humidity,HourlyPrecipIn,Conditions,Clouds,dailyrainin,SolarRadiationWatts/m^2,SoftwareType,DateUTC
2013-03-31 00:02:00,62.0,32.0,29.94,East,87,6.0,8.0,33,0.00,,,-99.99,0.004000,,2013-03-31 05:02:00,
2013-03-31 00:12:00,61.0,35.0,29.94,SE,125,6.0,7.0,39,0.00,,,-99.99,0.003000,,2013-03-31 05:12:00,
2013-03-31 00:22:00,61.0,35.0,29.94,SE,125,6.0,7.0,39,0.00,,,-99.99,0.003000,,2013-03-31 05:22:00,
2013-03-31 00:32:00,61.0,35.0,29.94,SE,125,6.0,7.0,39,0.00,,,-99.99,0.003000,,2013-03-31 05:32:00,
2013-03-31 00:42:00,58.0,35.0,29.94,SSE,158,5.0,5.0,42,0.00,,,-99.99,0.003000,,2013-03-31 05:42:00,
2013-03-31 00:52:00,58.0,35.0,29.94,SSE,158,5.0,5.0,42,0.00,,,-99.99,0.003000,,2013-03-31 05:52:00,
2013-03-31 01:02:00,58.0,35.0,29.94,SSE,158,5.0,5.0,42,0.00,,,-99.99,0.003000,,2013-03-31 06:02:00,
2013-03-31 01:12:00,54.0,35.0,29.94,SSE,152,3.0,7.0,48,0.00,,,-99.99,0.000000,,2013-03-31 06:12:00,
2013-03-31 01:22:00,54.0,35.0,29.94,SSE,152,3.0,7.0,48,0.00,,,-99.99,0.000000,,2013-03-31 06:22:00,
2013-03-31 01:32:00,54.0,35.0,29.94,SSE,152,3.0,7.0,48,0.00,,,-99.99,0.000000,,2013-03-31 06:32:00,
2013-03-31 01:42:00,58.0,41.0,29.94,South,181,5.0,7.0,53,0.00,,,-99.99,0.000000,,2013-03-31 06:42:00,
2013-03-31 01:52:00,58.0,41.0,29.94,South,181,5.0,7.0,53,0.00,,,-99.99,0.000000,,2013-03-31 06:52:00,
2013-03-31 02:02:00,58.0,41.0,29.94,South,181,5.0,7.0,53,0.00,,,-99.99,0.000000,,2013-03-31 07:02:00,
2013-03-31 02:12:00,56.0,39.0,29.94,SSW,197,8.0,12.0,54,0.00,,,-99.99,0.000000,,2013-03-31 07:12:00,
2013-03-31 02:22:00,56.0,39.0,29.94,SSW,197,8.0,12.0,54,0.00,,,-99.99,0.000000,,2013-03-31 07:22:00,
2013-03-31 02:32:00,56.0,39.0,29.94,SSW,197,8.0,12.0,54,0.00,,,-99.99,0.000000,,2013-03-31 07:32:00,
2013-03-31 02:42:00,55.0,39.0,29.94,South,186,12.0,13.0,56,0.00,,,-99.99,0.000000,,2013-03-31 07:42:00,
2013-03-31 02:52:00,55.0,39.0,29.94,South,186,12.0,13.0,56,0.00,,,-99.99,0.000000,,2013-03-31 07:52:00,
2013-03-31 03:02:00,55.0,39.0,29.94,South,186,12.0,13.0,56,0.00,,,-99.99,0.000000,,2013-03-31 08:02:00,
2013-03-31 03:12:00,55.0,40.0,29.93,South,180,3.0,5.0,57,0.00,,,-99.99,0.000000,,2013-03-31 08:12:00,
2013-03-31 03:22:00,55.0,40.0,29.93,South,180,3.0,5.0,57,0.00,,,-99.99,0.000000,,2013-03-31 08:22:00,
2013-03-31 03:32:00,55.0,40.0,29.93,South,180,3.0,5.0,57,0.00,,,-99.99,0.000000,,2013-03-31 08:32:00,
2013-03-31 03:42:00,57.0,41.0,29.92,SSE,164,4.0,5.0,55,0.00,,,-99.99,0.000000,,2013-03-31 08:42:00,
2013-03-31 03:52:00,57.0,41.0,29.92,SSE,164,4.0,5.0,55,0.00,,,-99.99,0.000000,,2013-03-31 08:52:00,
2013-03-31 04:02:00,57.0,41.0,29.92,SSE,164,4.0,5.0,55,0.00,,,-99.99,0.000000,,2013-03-31 09:02:00,
2013-03-31 04:12:00,55.0,38.0,29.92,SSE,152,1.0,3.0,55,0.00,,,-99.99,0.000000,,2013-03-31 09:12:00,
2013-03-31 04:22:00,55.0,38.0,29.92,SSE,152,1.0,3.0,55,0.00,,,-99.99,0.000000,,2013-03-31 09:22:00,
2013-03-31 04:33:00,55.0,38.0,29.92,SSE,152,1.0,3.0,55,0.00,,,-99.99,0.000000,,2013-03-31 09:33:00,
2013-03-31 04:42:00,54.0,38.0,29.91,SSE,165,0.0,0.0,58,0.00,,,-99.99,0.000000,,2013-03-31 09:42:00,
2013-03-31 04:53:00,54.0,38.0,29.91,SSE,165,0.0,0.0,58,0.00,,,-99.99,0.000000,,2013-03-31 09:53:00,
2013-03-31 05:03:00,54.0,38.0,29.91,SSE,165,0.0,0.0,58,0.00,,,-99.99,0.000000,,2013-03-31 10:03:00,
2013-03-31 05:13:00,51.0,36.0,29.90,NE,37,1.0,3.0,58,0.00,,,-99.99,0.000000,,2013-03-31 10:13:00,
2013-03-31 05:23:00,51.0,36.0,29.90,NE,37,1.0,3.0,58,0.00,,,-99.99,0.000000,,2013-03-31 10:23:00,
2013-03-31 05:32:00,51.0,36.0,29.90,NE,37,1.0,3.0,58,0.00,,,-99.99,0.000000,,2013-03-31 10:32:00,
2013-03-31 05:42:00,56.0,42.0,29.95,NNE,15,22.0,32.0,60,0.00,,,-99.99,0.000000,,2013-03-31 10:42:00,
2013-03-31 05:52:00,56.0,42.0,29.95,NNE,15,22.0,32.0,60,0.00,,,-99.99,0.000000,,2013-03-31 10:52:00,
2013-03-31 06:02:00,56.0,42.0,29.95,NNE,15,22.0,32.0,60,0.00,,,-99.99,0.000000,,2013-03-31 11:02:00,
2013-03-31 06:12:00,52.0,44.0,29.97,NE,36,28.0,34.0,75,0.00,,,-99.99,0.000000,,2013-03-31 11:12:00,
2013-03-31 06:23:00,52.0,44.0,29.97,NE,36,28.0,34.0,75,0.00,,,-99.99,0.000000,,2013-03-31 11:23:00,
2013-03-31 06:32:00,52.0,44.0,29.97,NE,36,28.0,34.0,75,0.00,,,-99.99,0.000000,,2013-03-31 11:32:00,
2013-03-31 06:42:00,51.0,45.0,30.00,NE,35,23.0,27.0,80,0.00,,,-99.99,0.000000,,2013-03-31 11:42:00,
2013-03-31 06:52:00,51.0,45.0,30.00,NE,35,23.0,27.0,80,0.00,,,-99.99,0.000000,,2013-03-31 11:52:00,
2013-03-31 07:02:00,51.0,45.0,30.00,NE,35,23.0,27.0,80,0.00,,,-99.99,0.000000,,2013-03-31 12:02:00,
2013-03-31 07:12:00,51.0,44.0,30.02,NE,35,24.0,30.0,78,0.00,,,-99.99,0.000000,,2013-03-31 12:12:00,
2013-03-31 07:22:00,51.0,44.0,30.02,NE,35,24.0,30.0,78,0.00,,,-99.99,0.000000,,2013-03-31 12:22:00,
2013-03-31 07:33:00,51.0,44.0,30.02,NE,35,24.0,30.0,78,0.00,,,-99.99,0.000000,,2013-03-31 12:33:00,
2013-03-31 07:42:00,50.0,42.0,30.04,NNE,31,18.0,25.0,75,0.00,,,-99.99,0.748000,,2013-03-31 12:42:00,
2013-03-31 07:52:00,50.0,42.0,30.04,NNE,31,18.0,25.0,75,0.00,,,-99.99,0.748000,,2013-03-31 12:52:00,
2013-03-31 08:02:00,50.0,42.0,30.04,NNE,31,18.0,25.0,75,0.00,,,-99.99,0.748000,,2013-03-31 13:02:00,
2013-03-31 08:12:00,50.0,42.0,30.07,NNE,25,12.0,16.0,74,0.00,,,-99.99,38.470001,,2013-03-31 13:12:00,
2013-03-31 08:22:00,50.0,42.0,30.07,NNE,25,12.0,16.0,74,0.00,,,-99.99,38.470001,,2013-03-31 13:22:00,
2013-03-31 08:32:00,50.0,42.0,30.07,NNE,25,12.0,16.0,74,0.00,,,-99.99,38.470001,,2013-03-31 13:32:00,
2013-03-31 08:42:00,51.0,42.0,30.08,NE,37,12.0,16.0,74,0.00,,,-99.99,53.380001,,2013-03-31 13:42:00,
2013-03-31 08:52:00,51.0,42.0,30.08,NE,37,12.0,16.0,74,0.00,,,-99.99,53.380001,,2013-03-31 13:52:00,
2013-03-31 09:02:00,51.0,42.0,30.08,NE,37,12.0,16.0,74,0.00,,,-99.99,53.380001,,2013-03-31 14:02:00,
2013-03-31 09:12:00,52.0,43.0,30.09,NE,51,10.0,13.0,72,0.00,,,-99.99,101.400002,,2013-03-31 14:12:00,
2013-03-31 09:22:00,52.0,43.0,30.09,NE,51,10.0,13.0,72,0.00,,,-99.99,101.400002,,2013-03-31 14:22:00,
2013-03-31 09:32:00,52.0,43.0,30.09,NE,51,10.0,13.0,72,0.00,,,-99.99,101.400002,,2013-03-31 14:32:00,
2013-03-31 09:42:00,53.0,43.0,30.10,ENE,59,10.0,12.0,71,0.00,,,-99.99,121.900002,,2013-03-31 14:42:00,
2013-03-31 09:52:00,53.0,43.0,30.10,ENE,59,10.0,12.0,71,0.00,,,-99.99,121.900002,,2013-03-31 14:52:00,
2013-03-31 10:02:00,53.0,43.0,30.10,ENE,59,10.0,12.0,71,0.00,,,-99.99,121.900002,,2013-03-31 15:02:00,
2013-03-31 10:13:00,55.0,43.0,30.11,NE,53,15.0,19.0,65,0.00,,,-99.99,186.899994,,2013-03-31 15:13:00,
2013-03-31 10:22:00,55.0,43.0,30.11,NE,53,15.0,19.0,65,0.00,,,-99.99,186.899994,,2013-03-31 15:22:00,
2013-03-31 10:33:00,55.0,43.0,30.11,NE,53,15.0,19.0,65,0.00,,,-99.99,186.899994,,2013-03-31 15:33:00,
2013-03-31 10:43:00,56.0,43.0,30.12,NE,41,9.0,12.0,63,0.00,,,-99.99,131.399994,,2013-03-31 15:43:00,
2013-03-31 10:53:00,56.0,43.0,30.12,NE,41,9.0,12.0,63,0.00,,,-99.99,131.399994,,2013-03-31 15:53:00,
2013-03-31 11:03:00,56.0,43.0,30.12,NE,41,9.0,12.0,63,0.00,,,-99.99,131.399994,,2013-03-31 16:03:00,
2013-03-31 11:13:00,58.0,42.0,30.13,NNE,32,14.0,18.0,55,0.00,,,-99.99,461.399994,,2013-03-31 16:13:00,
2013-03-31 11:23:00,58.0,42.0,30.13,NNE,32,14.0,18.0,55,0.00,,,-99.99,461.399994,,2013-03-31 16:23:00,
2013-03-31 11:33:00,58.0,42.0,30.13,NNE,32,14.0,18.0,55,0.00,,,-99.99,461.399994,,2013-03-31 16:33:00,
2013-03-31 11:43:00,60.0,42.0,30.12,NNE,26,13.0,17.0,51,0.00,,,-99.99,704.000000,,2013-03-31 16:43:00,
2013-03-31 11:53:00,60.0,42.0,30.12,NNE,26,13.0,17.0,51,0.00,,,-99.99,704.000000,,2013-03-31 16:53:00,
2013-03-31 12:02:00,60.0,42.0,30.12,NNE,26,13.0,17.0,51,0.00,,,-99.99,704.000000,,2013-03-31 17:02:00,
2013-03-31 12:12:00,61.0,42.0,30.13,NE,44,13.0,17.0,48,0.00,,,-99.99,776.000000,,2013-03-31 17:12:00,
2013-03-31 12:22:00,61.0,42.0,30.13,NE,44,13.0,17.0,48,0.00,,,-99.99,776.000000,,2013-03-31 17:22:00,
2013-03-31 12:32:00,61.0,42.0,30.13,NE,44,13.0,17.0,48,0.00,,,-99.99,776.000000,,2013-03-31 17:32:00,
2013-03-31 12:43:00,63.0,42.0,30.12,NNE,31,11.0,15.0,45,0.00,,,-99.99,829.000000,,2013-03-31 17:43:00,
2013-03-31 12:52:00,63.0,42.0,30.12,NNE,31,11.0,15.0,45,0.00,,,-99.99,829.000000,,2013-03-31 17:52:00,
2013-03-31 13:02:00,63.0,42.0,30.12,NNE,31,11.0,15.0,45,0.00,,,-99.99,829.000000,,2013-03-31 18:02:00,
2013-03-31 13:13:00,63.0,42.0,30.12,North,0,5.0,18.0,46,0.00,,,-99.99,861.000000,,2013-03-31 18:13:00,
2013-03-31 13:22:00,63.0,42.0,30.12,North,0,5.0,18.0,46,0.00,,,-99.99,861.000000,,2013-03-31 18:22:00,
2013-03-31 13:32:00,63.0,42.0,30.12,North,0,5.0,18.0,46,0.00,,,-99.99,861.000000,,2013-03-31 18:32:00,
2013-03-31 13:42:00,65.0,41.0,30.11,NE,51,10.0,14.0,42,0.00,,,-99.99,885.000000,,2013-03-31 18:42:00,
2013-03-31 13:52:00,65.0,41.0,30.11,NE,51,10.0,14.0,42,0.00,,,-99.99,885.000000,,2013-03-31 18:52:00,
2013-03-31 14:03:00,65.0,41.0,30.11,NE,51,10.0,14.0,42,0.00,,,-99.99,885.000000,,2013-03-31 19:03:00,
2013-03-31 14:12:00,66.0,42.0,30.10,NE,34,7.0,12.0,41,0.00,,,-99.99,880.000000,,2013-03-31 19:12:00,
2013-03-31 14:22:00,66.0,42.0,30.10,NE,34,7.0,12.0,41,0.00,,,-99.99,880.000000,,2013-03-31 19:22:00,
2013-03-31 14:32:00,66.0,42.0,30.10,NE,34,7.0,12.0,41,0.00,,,-99.99,880.000000,,2013-03-31 19:32:00,
2013-03-31 14:42:00,66.0,42.0,30.09,North,7,7.0,12.0,40,0.00,,,-99.99,877.000000,,2013-03-31 19:42:00,
2013-03-31 14:53:00,66.0,42.0,30.09,North,7,7.0,12.0,40,0.00,,,-99.99,877.000000,,2013-03-31 19:53:00,
2013-03-31 15:02:00,66.0,42.0,30.09,North,7,7.0,12.0,40,0.00,,,-99.99,877.000000,,2013-03-31 20:02:00,
2013-03-31 15:12:00,67.0,41.0,30.08,East,94,10.0,17.0,37,0.00,,,-99.99,950.000000,,2013-03-31 20:12:00,
2013-03-31 15:22:00,67.0,41.0,30.08,East,94,10.0,17.0,37,0.00,,,-99.99,950.000000,,2013-03-31 20:22:00,
2013-03-31 15:33:00,67.0,41.0,30.08,East,94,10.0,17.0,37,0.00,,,-99.99,950.000000,,2013-03-31 20:33:00,
2013-03-31 15:43:00,68.0,41.0,30.06,ENE,70,8.0,13.0,36,0.00,,,-99.99,829.000000,,2013-03-31 20:43:00,
2013-03-31 15:52:00,68.0,41.0,30.06,ENE,70,8.0,13.0,36,0.00,,,-99.99,829.000000,,2013-03-31 20:52:00,
2013-03-31 16:02:00,68.0,41.0,30.06,ENE,70,8.0,13.0,36,0.00,,,-99.99,829.000000,,2013-03-31 21:02:00,
2013-03-31 16:12:00,67.0,41.0,30.04,NW,325,4.0,11.0,37,0.00,,,-99.99,479.399994,,2013-03-31 21:12:00,
2013-03-31 16:22:00,67.0,41.0,30.04,NW,325,4.0,11.0,37,0.00,,,-99.99,479.399994,,2013-03-31 21:22:00,
2013-03-31 16:33:00,67.0,41.0,30.04,NW,325,4.0,11.0,37,0.00,,,-99.99,479.399994,,2013-03-31 21:33:00,
2013-03-31 16:43:00,70.0,41.0,30.03,NE,38,3.0,8.0,34,0.00,,,-99.99,702.000000,,2013-03-31 21:43:00,
2013-03-31 16:53:00,70.0,41.0,30.03,NE,38,3.0,8.0,34,0.00,,,-99.99,702.000000,,2013-03-31 21:53:00,
2013-03-31 17:03:00,70.0,41.0,30.03,NE,38,3.0,8.0,34,0.00,,,-99.99,702.000000,,2013-03-31 22:03:00,
2013-03-31 17:13:00,69.0,40.0,30.02,West,280,4.0,7.0,34,0.00,,,-99.99,615.900024,,2013-03-31 22:13:00,
2013-03-31 17:23:00,69.0,40.0,30.02,West,280,4.0,7.0,34,0.00,,,-99.99,615.900024,,2013-03-31 22:23:00,
2013-03-31 17:33:00,69.0,40.0,30.02,West,280,4.0,7.0,34,0.00,,,-99.99,615.900024,,2013-03-31 22:33:00,
2013-03-31 17:42:00,70.0,40.0,30.01,NW,305,5.0,9.0,32,0.00,,,-99.99,511.899994,,2013-03-31 22:42:00,
2013-03-31 17:52:00,70.0,40.0,30.01,NW,305,5.0,9.0,32,0.00,,,-99.99,511.899994,,2013-03-31 22:52:00,
2013-03-31 18:02:00,70.0,40.0,30.01,NW,305,5.0,9.0,32,0.00,,,-99.99,511.899994,,2013-03-31 23:02:00,
2013-03-31 18:13:00,69.0,40.0,30.00,ENE,70,4.0,6.0,33,0.00,,,-99.99,411.899994,,2013-03-31 23:13:00,
2013-03-31 18:22:00,69.0,40.0,30.00,ENE,70,4.0,6.0,33,0.00,,,-99.99,411.899994,,2013-03-31 23:22:00,
2013-03-31 18:32:00,69.0,40.0,30.00,ENE,70,4.0,6.0,33,0.00,,,-99.99,411.899994,,2013-03-31 23:32:00,
2013-03-31 18:42:00,70.0,40.0,30.00,ESE,123,4.0,7.0,32,0.00,,,-99.99,304.700012,,2013-03-31 23:42:00,
2013-03-31 18:53:00,70.0,40.0,30.00,ESE,123,4.0,7.0,32,0.00,,,-99.99,304.700012,,2013-03-31 23:53:00,
2013-03-31 19:02:00,70.0,40.0,30.00,ESE,123,4.0,7.0,32,0.00,,,-99.99,304.700012,,2013-04-01 00:02:00,
2013-03-31 19:12:00,69.0,40.0,30.00,East,93,3.0,5.0,33,0.00,,,-99.99,194.000000,,2013-04-01 00:12:00,
2013-03-31 19:22:00,69.0,40.0,30.00,East,93,3.0,5.0,33,0.00,,,-99.99,194.000000,,2013-04-01 00:22:00,
2013-03-31 19:32:00,69.0,40.0,30.00,East,93,3.0,5.0,33,0.00,,,-99.99,194.000000,,2013-04-01 00:32:00,
2013-03-31 19:42:00,69.0,40.0,30.00,SSE,147,6.0,8.0,33,0.00,,,-99.99,97.500000,,2013-04-01 00:42:00,
2013-03-31 19:52:00,69.0,40.0,30.00,SSE,147,6.0,8.0,33,0.00,,,-99.99,97.500000,,2013-04-01 00:52:00,
2013-03-31 20:02:00,69.0,40.0,30.00,SSE,147,6.0,8.0,33,0.00,,,-99.99,97.500000,,2013-04-01 01:02:00,
2013-03-31 20:12:00,68.0,39.0,30.00,SSE,151,5.0,6.0,34,0.00,,,-99.99,20.740000,,2013-04-01 01:12:00,
2013-03-31 20:22:00,68.0,39.0,30.00,SSE,151,5.0,6.0,34,0.00,,,-99.99,20.740000,,2013-04-01 01:22:00,
2013-03-31 20:32:00,68.0,39.0,30.00,SSE,151,5.0,6.0,34,0.00,,,-99.99,20.740000,,2013-04-01 01:32:00,
2013-03-31 20:42:00,64.0,38.0,30.00,SE,140,7.0,8.0,39,0.00,,,-99.99,0.106000,,2013-04-01 01:42:00,
2013-03-31 20:52:00,64.0,38.0,30.00,SE,140,7.0,8.0,39,0.00,,,-99.99,0.106000,,2013-04-01 01:52:00,
2013-03-31 21:02:00,64.0,38.0,30.00,SE,140,7.0,8.0,39,0.00,,,-99.99,0.106000,,2013-04-01 02:02:00,
2013-03-31 21:12:00,61.0,37.0,30.01,ESE,122,5.0,5.0,40,0.00,,,-99.99,0.000000,,2013-04-01 02:12:00,
2013-03-31 21:22:00,61.0,37.0,30.01,ESE,122,5.0,5.0,40,0.00,,,-99.99,0.000000,,2013-04-01 02:22:00,
2013-03-31 21:32:00,61.0,37.0,30.01,ESE,122,5.0,5.0,40,0.00,,,-99.99,0.000000,,2013-04-01 02:32:00,
2013-03-31 21:42:00,59.0,37.0,30.02,SE,124,3.0,4.0,43,0.00,,,-99.99,0.003000,,2013-04-01 02:42:00,
2013-03-31 21:52:00,59.0,37.0,30.02,SE,124,3.0,4.0,43,0.00,,,-99.99,0.003000,,2013-04-01 02:52:00,
2013-03-31 22:02:00,59.0,37.0,30.02,SE,124,3.0,4.0,43,0.00,,,-99.99,0.003000,,2013-04-01 03:02:00,
2013-03-31 22:12:00,57.0,36.0,30.02,SE,139,4.0,5.0,44,0.00,,,-99.99,0.002000,,2013-04-01 03:12:00,
2013-03-31 22:22:00,57.0,36.0,30.02,SE,139,4.0,5.0,44,0.00,,,-99.99,0.002000,,2013-04-01 03:22:00,
2013-03-31 22:33:00,57.0,36.0,30.02,SE,139,4.0,5.0,44,0.00,,,-99.99,0.002000,,2013-04-01 03:33:00,
2013-03-31 22:43:00,56.0,36.0,30.03,ESE,112,5.0,6.0,47,0.00,,,-99.99,0.000000,,2013-04-01 03:43:00,
2013-03-31 22:53:00,56.0,36.0,30.03,ESE,112,5.0,6.0,47,0.00,,,-99.99,0.000000,,2013-04-01 03:53:00,
2013-03-31 23:02:00,56.0,36.0,30.03,ESE,112,5.0,6.0,47,0.00,,,-99.99,0.000000,,2013-04-01 04:02:00,
2013-03-31 23:13:00,53.0,36.0,30.03,SSE,153,8.0,9.0,53,0.00,,,-99.99,0.000000,,2013-04-01 04:13:00,
2013-03-31 23:23:00,53.0,36.0,30.03,SSE,153,8.0,9.0,53,0.00,,,-99.99,0.000000,,2013-04-01 04:23:00,
2013-03-31 23:32:00,53.0,36.0,30.03,SSE,153,8.0,9.0,53,0.00,,,-99.99,0.000000,,2013-04-01 04:32:00,
2013-03-31 23:43:00,55.0,39.0,30.03,SSE,148,8.0,9.0,55,0.00,,,-99.99,0.000000,,2013-04-01 04:43:00,
2013-03-31 23:52:00,55.0,39.0,30.03,SSE,148,8.0,9.0,55,0.00,,,-99.99,0.000000,,2013-04-01 04:52:00,